FW6664 Weather Reports


Display with metric or nautical units.
time (UTC)temp
F
wind
direction
speed
MPH
gust
MPH
rain 1hr
in
rain 24hr
in
rain mn
in
humidity
%
barometer
mb
20260508093026 58 177 0.0 1.0 0.00 0.00 0.00 33 1017.0
20260508092842 58 177 2.0 0.0 0.00 0.00 0.00 33 1017.0
20260508092517 58 177 0.0 1.0 0.00 0.00 0.00 33 1017.0
20260508092337 59 177 2.0 0.0 0.00 0.00 0.00 33 1017.0
20260508092006 58 177 0.0 0.0 0.00 0.00 0.00 33 1017.0
20260508091830 59 177 1.0 0.0 0.00 0.00 0.00 33 1017.0
20260508091609 58 177 0.0 0.0 0.00 0.00 0.00 33 1017.0
20260508091406 59 177 0.0 0.0 0.00 0.00 0.00 33 1017.0
20260508091029 58 177 0.0 0.0 0.00 0.00 0.00 33 1017.0
20260508090841 59 177 0.0 0.0 0.00 0.00 0.00 33 1017.0
20260508090526 58 177 0.0 0.0 0.00 0.00 0.00 33 1017.0
20260508090340 59 177 1.0 0.0 0.00 0.00 0.00 33 1017.0
20260508090019 58 177 0.0 0.0 0.00 0.00 0.00 33 1017.0
20260508043021 58 222 0.0 1.0 0.00 0.00 0.00 33 1017.0
20260508042831 59 222 0.0 0.0 0.00 0.00 0.00 33 1017.0
20260508042515 58 222 0.0 1.0 0.00 0.00 0.00 33 1017.0
20260508042347 59 222 0.0 0.0 0.00 0.00 0.00 33 1017.0
20260508042045 58 222 0.0 1.0 0.00 0.00 0.00 33 1017.0
20260508041843 59 222 1.0 0.0 0.00 0.00 0.00 33 1017.0
20260508041517 58 222 1.0 1.0 0.00 0.00 0.00 33 1017.0
20260508041336 59 222 2.0 0.0 0.00 0.00 0.00 33 1017.0
20260508041045 58 222 0.0 3.0 0.00 0.00 0.00 33 1017.0
20260508040854 59 222 0.0 0.0 0.00 0.00 0.00 33 1017.0
20260508040517 58 222 0.0 3.0 0.00 0.00 0.00 33 1017.0
20260508040327 59 222 2.0 0.0 0.00 0.00 0.00 33 1017.0
20260508040032 58 222 3.0 3.0 0.00 0.00 0.00 33 1017.0
20260508035842 59 222 5.0 0.0 0.00 0.00 0.00 33 1017.0
20260508035601 58 222 1.0 3.0 0.00 0.00 0.00 33 1017.0
20260508035503 58 222 1.0 3.0 0.00 0.00 0.00 33 1017.0
20260508035338 59 222 2.0 0.0 0.00 0.00 0.00 33 1017.0
20260508035052 58 222 2.0 3.0 0.00 0.00 0.00 33 1017.0
20260508034831 59 222 4.0 0.0 0.00 0.00 0.00 33 1017.0
20260508034546 58 222 2.0 3.0 0.00 0.00 0.00 33 1017.0
20260508034326 59 222 0.0 0.0 0.00 0.00 0.00 33 1017.0
20260508034039 59 222 1.0 4.0 0.00 0.00 0.00 33 1017.0
20260508033842 59 222 1.0 0.0 0.00 0.00 0.00 33 1017.0
20260508033534 59 222 2.0 6.0 0.00 0.00 0.00 33 1017.0
20260508033400 59 222 1.0 0.0 0.00 0.00 0.00 33 1017.0
20260508033100 59 222 3.0 6.0 0.00 0.00 0.00 33 1017.0
20260508033005 59 222 2.0 6.0 0.00 0.00 0.00 33 1017.0
20260508032833 59 222 5.0 0.0 0.00 0.00 0.00 33 1017.0
20260508032554 59 222 4.0 6.0 0.00 0.00 0.00 33 1017.0
20260508032329 60 222 0.0 0.0 0.00 0.00 0.00 33 1017.0
20260508032048 59 222 3.0 4.0 0.00 0.00 0.00 33 1017.0
20260508031826 60 223 6.0 0.0 0.00 0.00 0.00 33 1017.0
20260508031540 59 223 3.0 3.0 0.00 0.00 0.00 33 1017.0
20260508031339 60 223 5.0 0.0 0.00 0.00 0.00 33 1017.0
20260508031034 60 223 2.0 3.0 0.00 0.00 0.00 33 1017.0
20260508030837 60 223 2.0 0.0 0.00 0.00 0.00 33 1017.0
20260508030528 60 223 2.0 3.0 0.00 0.00 0.00 33 1017.0
20260508030338 60 223 3.0 0.0 0.00 0.00 0.00 33 1017.0
20260508030023 60 223 1.0 3.0 0.00 0.00 0.00 33 1017.0
20260508025833 61 223 3.0 0.0 0.00 0.00 0.00 33 1017.0
20260508025514 60 223 1.0 3.0 0.00 0.00 0.00 33 1017.0
20260508025327 61 223 3.0 0.0 0.00 0.00 0.00 33 1017.0
20260508025009 61 223 2.0 4.0 0.00 0.00 0.00 33 1017.0
20260508024844 61 224 4.0 0.0 0.00 0.00 0.00 33 1017.0
20260508024558 61 223 2.0 4.0 0.00 0.00 0.00 33 1017.0
20260508024501 61 223 3.0 4.0 0.00 0.00 0.00 33 1017.0
20260508024359 62 225 6.0 0.0 0.00 0.00 0.00 33 1017.0
20260508024034 62 228 3.0 4.0 0.00 0.00 0.00 33 1017.0
20260508023833 62 224 3.0 0.0 0.00 0.00 0.00 33 1017.0
20260508023523 62 220 2.0 3.0 0.00 0.00 0.00 33 1017.0
20260508023330 63 214 0.0 0.0 0.00 0.00 0.00 33 1017.0
20260508023017 62 213 1.0 5.0 0.00 0.00 0.00 33 1017.0
20260508022905 63 213 3.0 0.0 0.00 0.00 0.00 33 1017.0
20260508022547 63 213 3.0 6.0 0.00 0.00 0.00 33 1017.0
20260508022341 63 212 4.0 0.0 0.00 0.00 0.00 33 1017.0
20260508022019 63 213 4.0 6.0 0.00 0.00 0.00 33 1017.0
20260508021836 64 252 4.0 0.0 0.00 0.00 0.00 33 1017.0
20260508021513 64 208 5.0 6.0 0.00 0.00 0.00 33 1017.0
20260508021352 65 220 3.0 0.0 0.00 0.00 0.00 33 1017.0
20260508021041 65 220 0.0 6.0 0.00 0.00 0.00 33 1017.0
20260508020827 65 220 2.0 0.0 0.00 0.00 0.00 33 1017.0
20260508020534 65 223 2.0 4.0 0.00 0.00 0.00 33 1017.0
20260508020343 66 223 2.0 0.0 0.00 0.00 0.00 33 1017.0
20260508020026 66 250 3.0 4.0 0.00 0.00 0.00 33 1017.0
20260508015837 66 285 4.0 0.0 0.00 0.00 0.00 33 1017.0
20260508015518 66 296 3.0 4.0 0.00 0.00 0.00 33 1017.0
20260508015330 66 237 2.0 0.0 0.00 0.00 0.00 33 1017.0
20260508015011 66 261 2.0 4.0 0.00 0.00 0.00 33 1017.0
20260508014826 67 240 3.0 0.0 0.00 0.00 0.00 33 1017.0
20260508014504 67 283 3.0 4.0 0.00 0.00 0.00 33 1017.0
20260508014343 67 255 3.0 0.0 0.00 0.00 0.00 33 1017.0
20260508014056 67 257 2.0 4.0 0.00 0.00 0.00 33 1017.0
20260508013838 67 233 2.0 0.0 0.00 0.00 0.00 33 1017.0
20260508013546 67 282 2.0 4.0 0.00 0.00 0.00 33 1017.0
20260508013332 67 256 5.0 0.0 0.00 0.00 0.00 33 1017.0
20260508013041 66 252 1.0 4.0 0.00 0.00 0.00 33 1017.0
20260508012851 67 275 1.0 0.0 0.00 0.00 0.00 33 1017.0
20260508012514 66 289 3.0 4.0 0.00 0.00 0.00 33 1017.0
20260508012327 66 220 2.0 0.0 0.00 0.00 0.00 33 1017.0
20260508012008 66 222 2.0 5.0 0.00 0.00 0.00 33 1017.0
20260508011843 67 215 5.0 0.0 0.00 0.00 0.00 33 1017.0
20260508011556 67 227 3.0 5.0 0.00 0.00 0.00 33 1017.0
20260508011335 67 282 3.0 0.0 0.00 0.00 0.00 33 1017.0
20260508011051 67 242 3.0 6.0 0.00 0.00 0.00 33 1017.0
20260508010833 67 261 3.0 0.0 0.00 0.00 0.00 33 1017.0
20260508010525 67 228 2.0 6.0 0.00 0.00 0.00 33 1017.0
20260508010328 68 210 6.0 0.0 0.00 0.00 0.00 33 1017.0
20260508010055 67 261 4.0 6.0 0.00 0.00 0.00 33 1017.0
20260508005908 68 260 5.0 0.0 0.00 0.00 0.00 33 1017.0
20260508005524 67 217 3.0 5.0 0.00 0.00 0.00 33 1017.0
20260508005340 68 216 6.0 0.0 0.00 0.00 0.00 33 1017.0
20260508005020 68 202 3.0 6.0 0.00 0.00 0.00 33 1017.0
20260508004834 68 241 3.0 0.0 0.00 0.00 0.00 33 1017.0
20260508004549 68 222 3.0 6.0 0.00 0.00 0.00 33 1017.0
20260508004328 68 230 7.0 0.0 0.00 0.00 0.00 33 1017.0
20260508004014 68 279 2.0 5.0 0.00 0.00 0.00 33 1017.0
20260508003826 68 227 2.0 0.0 0.00 0.00 0.00 33 1017.0
20260508003508 68 249 2.0 5.0 0.00 0.00 0.00 33 1017.0
20260508003336 68 174 3.0 0.0 0.00 0.00 0.00 33 1017.0
20260508003041 68 196 4.0 6.0 0.00 0.00 0.00 33 1017.0
20260508002836 68 217 5.0 0.0 0.00 0.00 0.00 33 1017.0
20260508002528 67 233 3.0 8.0 0.00 0.00 0.00 33 1017.0
20260508002331 68 255 5.0 0.0 0.00 0.00 0.00 33 1017.0
20260508002022 67 215 4.0 8.0 0.00 0.00 0.00 33 1017.0
20260508001846 68 208 11.0 0.0 0.00 0.00 0.00 33 1017.0
20260508001514 68 192 5.0 6.0 0.00 0.00 0.00 33 1017.0
20260508001339 69 237 5.0 0.0 0.00 0.00 0.00 33 1017.0
20260508001005 69 218 4.0 6.0 0.00 0.00 0.00 33 1017.0
20260508000833 69 228 6.0 0.0 0.00 0.00 0.00 33 1017.0
20260508000557 69 219 3.0 7.0 0.00 0.00 0.00 33 1017.0
20260508000329 70 224 2.0 0.0 0.00 0.00 0.00 33 1017.0
20260508000052 69 263 5.0 7.0 0.00 0.00 0.00 33 1017.0
20260507235845 70 226 8.0 0.0 0.00 0.00 0.00 33 1017.0
20260507235543 69 228 4.0 9.0 0.00 0.00 0.00 33 1017.0
20260507235339 70 302 5.0 0.0 0.00 0.00 0.00 33 1017.0
20260507235038 69 248 4.0 9.0 0.00 0.00 0.00 33 1017.0
20260507234835 69 202 4.0 0.0 0.00 0.00 0.00 33 1017.0
20260507234540 69 207 4.0 6.0 0.00 0.00 0.00 33 1017.0
20260507234328 70 250 3.0 0.0 0.00 0.00 0.00 33 1017.0
20260507234019 70 250 3.0 8.0 0.00 0.00 0.00 33 1017.0
20260507233845 70 243 5.0 0.0 0.00 0.00 0.00 33 1017.0
20260507233512 69 210 4.0 8.0 0.00 0.00 0.00 33 1017.0
20260507233400 70 216 3.0 0.0 0.00 0.00 0.00 33 1017.0
20260507233051 69 286 4.0 7.0 0.00 0.00 0.00 33 1017.0
20260507232832 70 238 3.0 0.0 0.00 0.00 0.00 33 1017.0
20260507232532 69 166 4.0 8.0 0.00 0.00 0.00 33 1017.0
20260507232328 69 203 5.0 0.0 0.00 0.00 0.00 33 1017.0
20260507232024 69 214 8.0 8.0 0.00 0.00 0.00 33 1017.0
20260507231844 70 215 3.0 0.0 0.00 0.00 0.00 33 1017.0
20260507231551 69 197 2.0 8.0 0.00 0.00 0.00 33 1017.0
20260507231338 70 168 5.0 0.0 0.00 0.00 0.00 33 1017.0
20260507231023 70 216 4.0 8.0 0.00 0.00 0.00 33 1017.0
20260507230833 70 202 3.0 0.0 0.00 0.00 0.00 33 1017.0
20260507230516 70 252 4.0 7.0 0.00 0.00 0.00 33 1017.0
20260507230347 70 273 6.0 0.0 0.00 0.00 0.00 33 1017.0
20260507230015 70 246 5.0 7.0 0.00 0.00 0.00 33 1017.0
20260507225842 70 199 5.0 0.0 0.00 0.00 0.00 33 1017.0
20260507225558 70 207 6.0 7.0 0.00 0.00 0.00 33 1017.0
20260507225502 70 204 4.0 7.0 0.00 0.00 0.00 33 1017.0
20260507225335 70 256 6.0 0.0 0.00 0.00 0.00 33 1017.0
20260507225049 69 285 5.0 6.0 0.00 0.00 0.00 33 1017.0
20260507224830 70 259 8.0 0.0 0.00 0.00 0.00 33 1017.0
20260507224544 70 226 4.0 6.0 0.00 0.00 0.00 33 1017.0
20260507224328 70 218 5.0 0.0 0.00 0.00 0.00 33 1017.0
20260507224035 70 244 4.0 7.0 0.00 0.00 0.00 33 1017.0
20260507223845 70 183 3.0 0.0 0.00 0.00 0.00 33 1017.0
20260507223526 70 242 4.0 8.0 0.00 0.00 0.00 33 1017.0
20260507223337 71 235 6.0 0.0 0.00 0.00 0.00 33 1017.0
20260507223019 70 290 4.0 8.0 0.00 0.00 0.00 33 1017.0
20260507222830 71 234 4.0 0.0 0.00 0.00 0.00 33 1017.0
20260507222545 71 224 4.0 9.0 0.00 0.00 0.00 33 1017.0
20260507222344 72 224 11.0 0.0 0.00 0.00 0.00 33 1017.0
20260507222036 72 288 3.0 9.0 0.00 0.00 0.00 33 1017.0
20260507221838 72 260 4.0 0.0 0.00 0.00 0.00 33 1017.0
20260507221532 72 106 4.0 7.0 0.00 0.00 0.00 33 1017.0
20260507221333 73 247 7.0 0.0 0.00 0.00 0.00 33 1017.0
20260507221021 72 216 6.0 7.0 0.00 0.00 0.00 33 1017.0
20260507220848 72 198 5.0 0.0 0.00 0.00 0.00 33 1017.0
20260507220511 72 220 3.0 7.0 0.00 0.00 0.00 33 1017.0
20260507220401 73 255 5.0 0.0 0.00 0.00 0.00 33 1017.0
20260507220041 72 238 4.0 6.0 0.00 0.00 0.00 33 1017.0
20260507215838 73 227 6.0 0.0 0.00 0.00 0.00 33 1017.0
20260507215536 73 236 2.0 6.0 0.00 0.00 0.00 33 1017.0
20260507215333 73 291 3.0 0.0 0.00 0.00 0.00 33 1017.0
20260507215027 72 306 3.0 6.0 0.00 0.00 0.00 33 1017.0
20260507214829 72 294 5.0 0.0 0.00 0.00 0.00 33 1017.0
20260507214521 72 281 4.0 7.0 0.00 0.00 0.00 33 1017.0
20260507214405 73 213 8.0 0.0 0.00 0.00 0.00 33 1017.0
20260507214050 71 232 2.0 9.0 0.00 0.00 0.00 33 1017.0
20260507213900 72 220 5.0 0.0 0.00 0.00 0.00 33 1017.0
20260507213522 71 208 3.0 9.0 0.00 0.00 0.00 33 1017.0
20260507213333 71 293 6.0 0.0 0.00 0.00 0.00 33 1017.0
20260507213053 70 257 6.0 10.0 0.00 0.00 0.00 33 1017.0
20260507212831 71 183 4.0 0.0 0.00 0.00 0.00 33 1017.0
20260507212546 71 225 8.0 10.0 0.00 0.00 0.00 33 1017.0
20260507212342 72 207 4.0 0.0 0.00 0.00 0.00 33 1017.0
20260507212036 71 226 4.0 7.0 0.00 0.00 0.00 33 1017.0
20260507211836 72 209 3.0 0.0 0.00 0.00 0.00 33 1017.0
20260507211533 71 240 5.0 7.0 0.00 0.00 0.00 33 1017.0
20260507211331 72 227 5.0 0.0 0.00 0.00 0.00 33 1017.0
20260507211018 72 248 7.0 7.0 0.00 0.00 0.00 33 1017.0
20260507210846 72 224 4.0 0.0 0.00 0.00 0.00 33 1017.0
20260507210511 71 289 3.0 8.0 0.00 0.00 0.00 33 1017.0
20260507210342 71 269 4.0 0.0 0.00 0.00 0.00 33 1017.0
20260507210006 71 276 6.0 10.0 0.00 0.00 0.00 33 1017.0
20260507205856 71 225 3.0 0.0 0.00 0.00 0.00 33 1017.0
20260507205532 70 266 4.0 10.0 0.00 0.00 0.00 33 1017.0
20260507205329 70 292 5.0 0.0 0.00 0.00 0.00 33 1017.0
20260507205026 70 249 6.0 10.0 0.00 0.00 0.00 33 1017.0
20260507204846 70 217 6.0 0.0 0.00 0.00 0.00 33 1017.0
20260507204516 69 263 6.0 9.0 0.00 0.00 0.00 33 1017.0
20260507204340 70 210 9.0 0.0 0.00 0.00 0.00 33 1017.0
20260507204009 70 208 6.0 9.0 0.00 0.00 0.00 33 1017.0
20260507203834 70 275 12.0 0.0 0.00 0.00 0.00 33 1017.0
20260507203538 70 236 6.0 10.0 0.00 0.00 0.00 33 1017.0
20260507203327 70 242 10.0 0.0 0.00 0.00 0.00 33 1017.0
20260507203030 70 251 5.0 10.0 0.00 0.00 0.00 33 1017.0
20260507202829 71 226 11.0 0.0 0.00 0.00 0.00 33 1017.0
20260507202525 70 218 6.0 8.0 0.00 0.00 0.00 33 1017.0
20260507202347 71 227 7.0 0.0 0.00 0.00 0.00 33 1017.0
20260507202022 71 236 7.0 8.0 0.00 0.00 0.00 33 1017.0
20260507201903 71 288 6.0 0.0 0.00 0.00 0.00 33 1017.0
20260507201547 71 212 4.0 7.0 0.00 0.00 0.00 33 1017.0
20260507201337 71 254 7.0 0.0 0.00 0.00 0.00 33 1017.0
20260507201042 70 256 6.0 11.0 0.00 0.00 0.00 33 1017.0
20260507200833 70 264 6.0 0.0 0.00 0.00 0.00 33 1017.0
20260507200541 70 218 7.0 11.0 0.00 0.00 0.00 33 1017.0
20260507200329 71 234 5.0 0.0 0.00 0.00 0.00 33 1017.0
20260507200011 71 187 6.0 10.0 0.00 0.00 0.00 33 1017.0
20260507195845 72 227 6.0 0.0 0.00 0.00 0.00 33 1017.0
20260507195559 71 186 3.0 6.0 0.00 0.00 0.00 33 1017.0
20260507195337 71 294 4.0 0.0 0.00 0.00 0.00 33 1017.0
20260507195056 71 291 5.0 9.0 0.00 0.00 0.00 33 1017.0
20260507194859 72 269 4.0 0.0 0.00 0.00 0.00 33 1017.0
20260507194533 71 240 4.0 10.0 0.00 0.00 0.00 33 1017.0
20260507194330 71 214 6.0 0.0 0.00 0.00 0.00 33 1017.0
20260507194016 71 210 8.0 10.0 0.00 0.00 0.00 33 1017.0
20260507193907 71 279 8.0 0.0 0.00 0.00 0.00 33 1017.0
20260507193549 70 263 5.0 6.0 0.00 0.00 0.00 33 1017.0
20260507193341 71 253 5.0 0.0 0.00 0.00 0.00 33 1017.0
20260507193019 70 199 2.0 7.0 0.00 0.00 0.00 33 1017.0
20260507192837 71 253 3.0 0.0 0.00 0.00 0.00 33 1017.0
20260507192511 70 249 2.0 7.0 0.00 0.00 0.00 33 1017.0
20260507192334 70 262 6.0 0.0 0.00 0.00 0.00 33 1017.0
20260507192005 70 262 5.0 6.0 0.00 0.00 0.00 33 1017.0
20260507191849 70 219 8.0 0.0 0.00 0.00 0.00 33 1017.0
20260507191534 70 208 4.0 6.0 0.00 0.00 0.00 33 1017.0
20260507191343 70 252 7.0 0.0 0.00 0.00 0.00 33 1017.0
20260507191005 70 205 3.0 6.0 0.00 0.00 0.00 33 1017.0
20260507190857 70 204 4.0 0.0 0.00 0.00 0.00 33 1017.0
20260507190533 70 281 5.0 6.0 0.00 0.00 0.00 33 1017.0
20260507190330 71 223 4.0 0.0 0.00 0.00 0.00 33 1017.0
20260507190039 71 216 4.0 6.0 0.00 0.00 0.00 33 1017.0
20260507185846 71 290 8.0 0.0 0.00 0.00 0.00 33 1017.0
20260507185520 71 246 3.0 8.0 0.00 0.00 0.00 33 1017.0
20260507185339 72 232 7.0 0.0 0.00 0.00 0.00 33 1017.0
20260507185010 72 213 7.0 8.0 0.00 0.00 0.00 33 1017.0
20260507184834 73 263 8.0 0.0 0.00 0.00 0.00 33 1017.0
20260507184558 72 222 3.0 5.0 0.00 0.00 0.00 33 1017.0
20260507184502 72 282 2.0 5.0 0.00 0.00 0.00 33 1017.0
20260507184327 72 243 7.0 0.0 0.00 0.00 0.00 33 1017.0
20260507184051 72 291 4.0 6.0 0.00 0.00 0.00 33 1017.0
20260507183906 72 295 5.0 0.0 0.00 0.00 0.00 33 1017.0
20260507183525 71 298 2.0 6.0 0.00 0.00 0.00 33 1017.0
20260507183341 71 299 5.0 0.0 0.00 0.00 0.00 33 1017.0
20260507183019 70 300 5.0 6.0 0.00 0.00 0.00 33 1017.0
20260507182834 71 295 3.0 0.0 0.00 0.00 0.00 33 1017.0
20260507182509 70 238 2.0 5.0 0.00 0.00 0.00 33 1017.0
20260507182350 70 238 5.0 0.0 0.00 0.00 0.00 33 1017.0
20260507182037 69 284 1.0 5.0 0.00 0.00 0.00 33 1017.0
20260507181845 70 284 2.0 0.0 0.00 0.00 0.00 33 1017.0
20260507181508 69 283 4.0 5.0 0.00 0.00 0.00 33 1017.0
20260507181339 69 286 9.0 0.0 0.00 0.00 0.00 33 1017.0
20260507181101 69 257 1.0 7.0 0.00 0.00 0.00 33 1017.0
20260507181002 68 295 1.0 7.0 0.00 0.00 0.00 33 1017.0
20260507180833 69 300 2.0 0.0 0.00 0.00 0.00 33 1017.0
20260507180531 68 273 2.0 7.0 0.00 0.00 0.00 33 1017.0
20260507180329 69 273 2.0 0.0 0.00 0.00 0.00 33 1017.0
20260507180028 68 292 3.0 6.0 0.00 0.00 0.00 33 1017.0
20260507175829 68 270 5.0 0.0 0.00 0.00 0.00 33 1017.0
20260507175525 68 290 3.0 3.0 0.00 0.00 0.00 33 1017.0
20260507175408 68 311 5.0 0.0 0.00 0.00 0.00 33 1017.0
20260507175051 67 261 2.0 5.0 0.00 0.00 0.00 33 1017.0
20260507174905 68 265 5.0 0.0 0.00 0.00 0.00 33 1017.0
20260507174531 67 200 2.0 5.0 0.00 0.00 0.00 33 1017.0
20260507174339 67 250 5.0 0.0 0.00 0.00 0.00 33 1017.0
20260507174018 67 250 2.0 6.0 0.00 0.00 0.00 33 1017.0
20260507173834 67 305 5.0 0.0 0.00 0.00 0.00 33 1017.0
20260507173520 67 308 3.0 6.0 0.00 0.00 0.00 33 1017.0
20260507173334 67 303 4.0 0.0 0.00 0.00 0.00 33 1017.0
20260507173017 66 296 1.0 5.0 0.00 0.00 0.00 33 1017.0
20260507172833 67 291 6.0 0.0 0.00 0.00 0.00 33 1017.0
20260507172557 66 281 3.0 5.0 0.00 0.00 0.00 33 1017.0
20260507172501 66 294 2.0 5.0 0.00 0.00 0.00 33 1017.0
20260507172348 66 294 3.0 0.0 0.00 0.00 0.00 33 1017.0
20260507172030 65 294 4.0 5.0 0.00 0.00 0.00 33 1017.0
20260507171844 66 298 7.0 0.0 0.00 0.00 0.00 33 1017.0
20260507171523 65 298 4.0 5.0 0.00 0.00 0.00 33 1017.0
20260507171339 65 299 5.0 0.0 0.00 0.00 0.00 33 1017.0
20260507171018 64 292 2.0 5.0 0.00 0.00 0.00 33 1017.0
20260507170836 64 292 3.0 0.0 0.00 0.00 0.00 33 1017.0
20260507170509 63 321 3.0 4.0 0.00 0.00 0.00 33 1017.0
20260507170330 64 328 1.0 0.0 0.00 0.00 0.00 33 1017.0
20260507170010 63 328 3.0 6.0 0.00 0.00 0.00 33 1017.0
20260507165848 64 304 4.0 0.0 0.00 0.00 0.00 33 1017.0
20260507165556 63 288 2.0 6.0 0.00 0.00 0.00 33 1017.0
20260507165344 63 283 2.0 0.0 0.00 0.00 0.00 33 1017.0
20260507165051 63 279 4.0 6.0 0.00 0.00 0.00 33 1017.0
20260507164842 63 293 5.0 0.0 0.00 0.00 0.00 33 1017.0
20260507164603 62 298 3.0 6.0 0.00 0.00 0.00 33 1017.0
20260507164335 63 299 4.0 0.0 0.00 0.00 0.00 33 1017.0
20260507164134 62 303 6.0 6.0 0.00 0.00 0.00 33 1017.0
20260507150336 59 310 2.0 0.0 0.00 0.00 0.00 33 1017.0
20260507150108 58 311 2.0 2.0 0.00 0.00 0.00 33 1017.0